Total_Precipitation_Accumulation
0.10 0.04 0.04 0.06 0.04 0.14 0.72 0.09 0.10 0.10 0.03 0.02 0.00 0.00 0.00 0.00 0.00 0.00 0.00 0.02 0.02 0.05 0.07 0.21 0.23 0.10 0.08 0.05 0.05 0.05 0.03 0.00 0.06 0.05 0.02 0.02 0.00 0.01 0.00 0.00 0.01 0.02 0.06
0.08 0.07 0.12 0.09 0.08 0.10 0.22 0.13 0.10 0.23 0.01 0.00 0.00 0.00 0.00 0.00 0.00 0.00 0.00 0.01 0.03 0.03 0.07 0.25 0.29 0.19 0.17 0.13 0.05 0.05 0.05 0.02 0.01 0.09 0.05 0.05 0.05 0.02 0.00 0.01 0.02 0.01 0.02
0.04 0.06 0.07 0.03 0.09 0.20 0.18 0.10 0.09 0.26 0.02 0.00 0.00 0.00 0.00 0.00 0.00 0.00 0.00 0.00 0.01 0.03 0.04 0.14 0.33 0.17 0.12 0.33 0.25 0.15 0.23 0.19 0.05 0.02 0.01 0.01 0.04 0.04 0.03 0.02 0.05 0.03 0.04
0.01 0.06 0.17 0.12 0.11 0.16 0.15 0.10 0.08 0.06 0.00 0.00 0.00 0.00 0.00 0.00 0.00 0.00 0.00 0.00 0.00 0.00 0.02 0.06 0.16 0.32 0.26 0.26 0.41 0.37 0.38 0.38 0.41 0.26 0.13 0.04 0.01 0.01 0.01 0.02 0.04 0.08 0.07
0.05 0.23 0.20 0.18 0.08 0.15 0.09 0.08 0.07 0.03 0.00 0.00 0.00 0.00 0.00 0.00 0.00 0.00 0.00 0.00 0.00 0.00 0.00 0.01 0.03 0.10 0.13 0.18 0.26 0.27 0.36 0.46 0.40 0.36 0.38 0.32 0.23 0.17 0.16 0.14 0.10 0.09 0.09
0.07 0.05 0.15 0.24 0.11 0.07 0.07 0.09 0.06 0.00 0.00 0.00 0.00 0.00 0.00 0.00 0.00 0.00 0.00 0.00 0.00 0.00 0.00 0.00 0.01 0.02 0.05 0.08 0.18 0.24 0.30 0.33 0.35 0.33 0.28 0.29 0.35 0.34 0.32 0.25 0.19 0.16 0.17
0.00 0.05 0.16 0.27 0.10 0.09 0.11 0.09 0.04 0.00 0.00 0.00 0.00 0.00 0.00 0.00 0.00 0.00 0.00 0.00 0.00 0.00 0.00 0.00 0.01 0.01 0.03 0.07 0.10 0.11 0.10 0.13 0.19 0.28 0.37 0.29 0.39 0.37 0.46 0.51 0.58 0.43 0.40
0.01 0.10 0.26 0.15 0.07 0.12 0.13 0.08 0.07 0.04 0.00 0.00 0.00 0.00 0.00 0.00 0.00 0.00 0.00 0.00 0.00 0.00 0.00 0.00 0.00 0.00 0.01 0.01 0.01 0.02 0.02 0.01 0.03 0.08 0.14 0.15 0.17 0.19 0.21 0.20 0.26 0.38 0.46
0.00 0.09 0.18 0.10 0.14 0.11 0.23 0.15 0.04 0.02 0.01 0.00 0.00 0.00 0.00 0.00 0.00 0.00 0.00 0.00 0.00 0.00 0.00 0.00 0.00 0.00 0.00 0.00 0.00 0.00 0.00 0.00 0.00 0.00 0.00 0.01 0.02 0.04 0.05 0.06 0.07 0.14 0.20
0.00 0.02 0.07 0.08 0.06 0.04 0.15 0.17 0.02 0.01 0.00 0.00 0.00 0.00 0.00 0.01 0.00 0.00 0.00 0.00 0.00 0.00 0.00 0.00 0.00 0.00 0.00 0.00 0.00 0.00 0.00 0.00 0.00 0.00 0.00 0.00 0.00 0.00 0.00 0.00 0.00 0.00 0.00
0.00 0.00 0.02 0.11 0.03 0.04 0.06 0.11 0.03 0.00 0.00 0.00 0.00 0.00 0.00 0.00 0.00 0.00 0.00 0.00 0.00 0.00 0.00 0.00 0.00 0.00 0.00 0.00 0.00 0.00 0.00 0.00 0.00 0.00 0.00 0.00 0.00 0.00 0.00 0.00 0.00 0.00 0.00
0.00 0.00 0.01 0.03 0.04 0.01 0.03 0.07 0.03 0.00 0.00 0.00 0.00 0.00 0.00 0.00 0.00 0.00 0.00 0.00 0.00 0.00 0.00 0.00 0.00 0.00 0.00 0.00 0.00 0.00 0.00 0.00 0.00 0.00 0.00 0.00 0.00 0.00 0.00 0.00 0.00 0.00 0.00
0.00 0.00 0.00 0.03 0.01 0.00 0.01 0.01 0.02 0.00 0.00 0.00 0.00 0.00 0.00 0.00 0.00 0.00 0.00 0.00 0.00 0.00 0.00 0.00 0.00 0.00 0.00 0.00 0.00 0.00 0.00 0.00 0.00 0.00 0.00 0.00 0.00 0.00 0.00 0.00 0.00 0.00 0.00
0.00 0.00 0.00 0.00 0.00 0.00 0.00 0.00 0.00 0.00 0.00 0.00 0.00 0.00 0.00 0.00 0.00 0.00 0.00 0.00 0.00 0.00 0.00 0.00 0.00 0.00 0.00 0.00 0.00 0.00 0.00 0.00 0.00 0.00 0.00 0.00 0.00 0.00 0.00 0.00 0.00 0.00 0.00
0.00 0.00 0.00 0.00 0.00 0.00 0.00 0.00 0.00 0.00 0.00 0.00 0.00 0.00 0.00 0.00 0.00 0.00 0.00 0.00 0.00 0.00 0.00 0.00 0.00 0.00 0.00 0.00 0.00 0.00 0.00 0.00 0.00 0.00 0.00 0.00 0.00 0.00 0.00 0.00 0.00 0.00 0.00
0.00 0.00 0.00 0.00 0.00 0.00 0.00 0.00 0.00 0.00 0.00 0.00 0.00 0.00 0.00 0.00 0.00 0.00 0.00 0.00 0.00 0.00 0.00 0.00 0.00 0.00 0.00 0.00 0.00 0.00 0.00 0.00 0.00 0.00 0.00 0.00 0.00 0.00 0.00 0.00 0.00 0.00 0.00
0.00 0.00 0.00 0.00 0.00 0.00 0.00 0.00 0.00 0.00 0.00 0.00 0.00 0.00 0.00 0.00 0.00 0.00 0.00 0.00 0.00 0.00 0.00 0.00 0.00 0.00 0.00 0.00 0.00 0.00 0.00 0.00 0.00 0.00 0.00 0.00 0.00 0.00 0.00 0.00 0.00 0.00 0.00
0.00 0.00 0.00 0.00 0.00 0.00 0.00 0.00 0.00 0.00 0.00 0.00 0.00 0.00 0.00 0.00 0.00 0.00 0.00 0.00 0.00 0.00 0.00 0.00 0.00 0.00 0.00 0.00 0.00 0.00 0.00 0.00 0.00 0.00 0.00 0.00 0.00 0.00 0.00 0.00 0.00 0.00 0.00
0.00 0.00 0.00 0.00 0.00 0.01 0.00 0.00 0.00 0.00 0.00 0.04 0.02 0.00 0.00 0.00 0.00 0.00 0.00 0.00 0.00 0.00 0.01 0.02 0.00 0.00 0.00 0.00 0.01 0.00 0.00 0.00 0.00 0.00 0.00 0.00 0.00 0.00 0.00 0.00 0.00 0.00 0.00
0.00 0.00 0.00 0.00 0.01 0.01 0.03 0.04 0.05 0.04 0.02 0.10 0.05 0.02 0.01 0.00 0.00 0.00 0.00 0.00 0.00 0.03 0.01 0.01 0.00 0.02 0.01 0.00 0.00 0.00 0.02 0.00 0.00 0.00 0.00 0.00 0.00 0.00 0.00 0.00 0.00 0.00 0.00
0.00 0.00 0.00 0.00 0.01 0.01 0.04 0.05 0.05 0.10 0.12 0.14 0.07 0.05 0.07 0.03 0.00 0.00 0.00 0.01 0.00 0.00 0.01 0.02 0.03 0.01 0.00 0.00 0.00 0.00 0.00 0.00 0.00 0.00 0.00 0.00 0.00 0.00 0.00 0.00 0.00 0.00 0.00
0.00 0.00 0.00 0.01 0.03 0.04 0.02 0.03 0.10 0.18 0.24 0.20 0.16 0.20 0.11 0.07 0.03 0.02 0.04 0.05 0.04 0.04 0.09 0.07 0.04 0.00 0.03 0.02 0.00 0.00 0.00 0.00 0.01 0.01 0.00 0.00 0.00 0.00 0.00 0.00 0.00 0.00 0.00
0.00 0.00 0.00 0.03 0.10 0.07 0.14 0.25 0.32 0.22 0.24 0.12 0.12 0.11 0.11 0.07 0.08 0.07 0.11 0.15 0.06 0.07 0.08 0.11 0.03 0.01 0.01 0.03 0.01 0.04 0.02 0.02 0.02 0.02 0.05 0.00 0.00 0.00 0.00 0.00 0.00 0.00 0.00
0.00 0.01 0.01 0.06 0.18 0.34 0.55 0.43 0.39 0.24 0.20 0.10 0.04 0.02 0.04 0.08 0.10 0.14 0.12 0.04 0.11 0.10 0.11 0.06 0.01 0.04 0.04 0.04 0.06 0.07 0.07 0.02 0.00 0.00 0.01 0.00 0.00 0.00 0.00 0.00 0.00 0.00 0.00
0.04 0.23 0.48 0.45 0.38 0.29 0.18 0.10 0.12 0.06 0.08 0.09 0.05 0.02 0.03 0.04 0.13 0.17 0.05 0.04 0.06 0.05 0.10 0.06 0.04 0.04 0.06 0.05 0.02 0.01 0.01 0.01 0.01 0.00 0.00 0.00 0.00 0.00 0.00 0.00 0.00 0.00 0.00
0.13 0.08 0.11 0.06 0.02 0.02 0.05 0.04 0.04 0.02 0.03 0.02 0.03 0.03 0.05 0.08 0.12 0.10 0.05 0.02 0.02 0.05 0.05 0.04 0.01 0.01 0.01 0.02 0.02 0.00 0.01 0.01 0.01 0.01 0.00 0.00 0.00 0.00 0.00 0.00 0.00 0.00 0.00